Location: Équennes
(49.7375°N, 1.9622°E)
Time: 21:55:35
(UTC+00:00)

Cosmos 540 Rocket - Pass Details

Date: 28 January 2023
Orbit: 740 x 751 km, 74.1° (Epoch: 28 March)

Event Time Altitude Azimuth Distance (km) Brightness Sun altitude
Rises 19:29:46 0° 336° (NNW) 3,211 7.1 -27.3°
Reaches altitude 10° 19:32:08 10° 336° (NNW) 2,281 6.3 -27.7°
Enters shadow 19:36:19 59° 332° (NNW) 865 3.8 -28.4°
